Notices

What's New in latest Release from April 7th, 2021:

- Updated Glossary, including Speed of Maximum Gust, and Total Hourly Precipitation

- Updated national and regional climate services offices contacts and prices information

- Addition of station inventory lists for 1981-2010, 1971-2000, and 1961-1990 Normals.

If you haven't already, please take our survey and provide feedback about our website: https://eccc.sondage-survey.ca/f/LanguageSelection.aspx?s=442ca660-fcf1-47c0-95a9-59707d6fd709

Hourly Data Report for April 13, 2017

KENORA A
ONTARIO

49°47'18.000" N
94°21'47.000" W
409.70 m
6034076
71850
YQK

Download Data

Hourly Data (April 2017)
Hourly Data Report for April 13, 2017
TIME
LST
Temp Definition
°C
Dew Point Definition
°C
Rel Hum Definition
%
Precip. Amount Definition
mm

Wind Dir Definition
10's deg

Wind Spd Definition
km/h
Visibility Definition
km
Stn Press Definition
kPa
Hmdx Definition


Wind Chill Definition


Weather Definition


00:00 4.8 -7.4 41   5 8 24.1 97.71     Mainly Clear
01:00 3.1 -7.2 47   9 7 24.1 97.71     LegendNANA
02:00 4.3 -7.2 43   36 2 24.1 97.71     LegendNANA
03:00 2.0 -6.9 52   36 2 24.1 97.70     Mainly Clear
04:00 2.6 -7.1 49   36 1 24.1 97.74     LegendNANA
05:00 2.5 -6.4 52   36 3 24.1 97.76     LegendNANA
06:00 3.4 -7.7 44   10 4 24.1 97.78     Mainly Clear
07:00 5.7 -6.2 42   10 6 24.1 97.82     LegendNANA
08:00 8.6 -6.0 35   10 5 24.1 97.82     LegendNANA
09:00 11.4 -6.0 29   19 7 24.1 97.81     Mainly Clear
10:00 13.4 -5.2 27   3 4 24.1 97.78     LegendNANA
11:00 14.1 -3.2 30   6 10 24.1 97.76     LegendNANA
12:00 14.8 -4.0 27   34 12 24.1 97.72     Mainly Clear
13:00 15.4 -2.9 28   18 16 24.1 97.69     LegendNANA
14:00 16.1 -3.3 26   18 16 24.1 97.65     LegendNANA
15:00 15.6 -3.3 27   23 18 24.1 97.58     Mostly Cloudy
16:00 15.4 -3.9 26   23 9 24.1 97.53     LegendNANA
17:00 15.6 -3.3 27   20 12 24.1 97.49     LegendNANA
18:00 14.6 -3.2 29   20 10 24.1 97.47     Mostly Cloudy
19:00 13.5 -3.7 30   36 3 24.1 97.42     LegendNANA
20:00 11.7 -2.8 36   9 8 24.1 97.43     LegendNANA
21:00 10.8 -3.3 37   11 14 24.1 97.40     Mostly Cloudy
22:00 8.6 -3.9 41   11 12 24.1 97.36     LegendNANA
23:00 7.9 -4.2 42   10 13 24.1 97.34     LegendNANA

Notes on Data Quality.

Legend

  • E = Estimated
  • M = Missing
  • NA = Not Available*
  • [empty] = Indicates an unobserved value
Date modified: